Weather History for Rush City, MN

Change the Weather History Date:

Wednesday, October 24, 2012

  Actual Average (KCBG) Record (KCBG)
Temperature  
Mean Temperature 52 °F -  
Max Temperature 57 °F 53 °F 129 °F (1998)
Min Temperature 46 °F 34 °F 1 °F (1998)
Degree Days  
Heating Degree Days 14    
Growing Degree Days 2 (Base 50)    
Moisture  
Dew Point 51 °F    
Average Humidity 93    
Maximum Humidity 97    
Minimum Humidity 84    
Precipitation  
Precipitation 0.04 in - - ()
Sea Level Pressure  
Sea Level Pressure 29.81 in    
Wind  
Wind Speed 4 mph (North)    
Max Wind Speed 15 mph    
Max Gust Speed 24 mph    
Visibility 8 miles    
Events Fog , Rain , Thunderstorm    
Averages and records for this station are not official NWS values.
T = Trace of Precipitation, MM = Missing Value Source: NWS Daily Summary

Daily Weather History Graph

Daily Weather History Graph

Search for Another Location

Airport:

Trip Planner

Search our weather history database for the weather conditions in past years. The results will help you decide how hot, cold, wet, or windy it might be!

Date:

Astronomy

Oct. 24, 2012 Rise Set
Actual Time 7:41 AM CDT 6:09 PM CDT
Civil Twilight 7:10 AM CDT 6:40 PM CDT
Nautical Twilight 6:36 AM CDT 7:15 PM CDT
Astronomical Twilight 6:01 AM CDT 7:49 PM CDT
Moon 3:38 PM CDT (10/24) 2:22 AM CDT (10/24)
Length of Visible Light 11h 29m
Length of Day
10h 28m
Waxing Gibbous, 76% of the Moon is Illuminated
Oct 24
Waxing Gibbous
Oct 29
Full
Nov 6
Last Quarter
Nov 13
New
Nov 20
First Quarter

Hourly Weather History & Observations

Time (CDT) Temp. Windchill Dew Point Humidity Pressure Visibility Wind Dir Wind Speed Gust Speed Precip Events Conditions
12:14 AM 56.7 °F - 55.8 °F 97% 29.79 in 7.0 mi South 3.5 mph - N/A   Overcast
12:34 AM 56.8 °F - 55.9 °F 97% 29.80 in 7.0 mi SSE 4.6 mph - N/A   Overcast
1:14 AM 56.3 °F - 55.4 °F 97% 29.78 in 7.0 mi Calm Calm - N/A   Overcast
1:34 AM 56.3 °F - 55.4 °F 97% 29.79 in 7.0 mi Calm Calm - N/A   Overcast
1:54 AM 54.9 °F - 54.0 °F 97% 29.79 in 3.0 mi South 3.5 mph - N/A   Scattered Clouds
2:14 AM 54.3 °F - 53.4 °F 97% 29.80 in 1.2 mi Calm Calm - N/A   Mostly Cloudy
2:34 AM 54.5 °F - 53.6 °F 97% 29.81 in 4.0 mi Calm Calm - N/A   Mostly Cloudy
2:54 AM 54.5 °F - 53.6 °F 97% 29.81 in 7.0 mi Calm Calm - N/A   Mostly Cloudy
3:14 AM 54.7 °F - 53.8 °F 97% 29.81 in 7.0 mi Calm Calm - N/A   Overcast
3:34 AM 54.3 °F - 53.4 °F 97% 29.80 in 5.0 mi Calm Calm - N/A   Overcast
3:54 AM 53.8 °F - 52.9 °F 97% 29.82 in 5.0 mi Calm Calm - N/A   Overcast
4:14 AM 54.0 °F - 53.1 °F 97% 29.81 in 5.0 mi Calm Calm - N/A   Overcast
4:34 AM 54.0 °F - 53.1 °F 97% 29.81 in 5.0 mi Calm Calm - N/A   Overcast
4:54 AM 52.7 °F - 51.8 °F 97% 29.79 in 2.0 mi Calm Calm - N/A   Mostly Cloudy
5:14 AM 51.6 °F - 50.7 °F 97% 29.81 in 0.8 mi Calm Calm - N/A   Mostly Cloudy
5:35 AM 50.2 °F - 49.3 °F 97% 29.81 in 1.0 mi Calm Calm - N/A   Overcast
5:54 AM 50.7 °F - 49.8 °F 97% 29.82 in 1.8 mi Calm Calm - N/A   Overcast
6:14 AM 51.8 °F - 51.1 °F 97% 29.84 in 5.0 mi Calm Calm - N/A   Overcast
6:35 AM 52.9 °F - 52.0 °F 97% 29.84 in 5.0 mi Calm Calm - N/A   Overcast
6:54 AM 53.4 °F - 52.7 °F 97% 29.85 in 5.0 mi Calm Calm - N/A   Overcast
7:14 AM 53.4 °F - 52.7 °F 97% 29.84 in 5.0 mi Calm Calm - N/A   Overcast
7:35 AM 53.1 °F - 52.3 °F 97% 29.84 in 3.0 mi Calm Calm - N/A   Overcast
7:54 AM 52.5 °F - 51.8 °F 97% 29.84 in 0.8 mi Calm Calm - N/A   Overcast
8:14 AM 51.4 °F - 50.5 °F 97% 29.85 in 0.5 mi Calm Calm - N/A Fog Fog
8:35 AM 50.9 °F - 50.0 °F 97% 29.87 in 1.0 mi Calm Calm - N/A   Overcast
8:54 AM 54.0 °F - 53.2 °F 97% 29.86 in 5.0 mi NW 6.9 mph - N/A   Mostly Cloudy
9:14 AM 54.5 °F - 53.6 °F 97% 29.86 in 10.0 mi NNW 6.9 mph - N/A   Mostly Cloudy
9:35 AM 54.9 °F - 54.1 °F 97% 29.86 in 10.0 mi North 5.8 mph - N/A   Overcast
9:54 AM 54.7 °F - 54.0 °F 97% 29.86 in 10.0 mi NNW 5.8 mph - N/A   Overcast
10:14 AM 54.7 °F - 54.0 °F 97% 29.86 in 10.0 mi North 5.8 mph - N/A   Overcast
10:34 AM 55.4 °F - 54.5 °F 97% 29.85 in 10.0 mi North 8.1 mph - N/A   Overcast
10:54 AM 55.8 °F - 54.9 °F 97% 29.84 in 10.0 mi North 9.2 mph - N/A   Overcast
11:14 AM 55.9 °F - 54.5 °F 95% 29.83 in 10.0 mi North 6.9 mph - N/A   Overcast
11:34 AM 56.3 °F - 52.9 °F 88% 29.83 in 10.0 mi NNE 9.2 mph - N/A   Overcast
11:54 AM 56.7 °F - 52.9 °F 87% 29.83 in 10.0 mi NE 8.1 mph - N/A   Overcast
12:14 PM 57.6 °F - 53.1 °F 85% 29.83 in 10.0 mi NE 5.8 mph - N/A   Overcast
12:34 PM 57.6 °F - 52.9 °F 84% 29.83 in 10.0 mi NNE 4.6 mph - N/A   Overcast
12:54 PM 57.6 °F - 53.2 °F 85% 29.81 in 10.0 mi NE 5.8 mph - N/A   Overcast
1:14 PM 57.6 °F - 52.9 °F 84% 29.81 in 10.0 mi NE 5.8 mph - N/A   Overcast
1:34 PM 57.6 °F - 53.1 °F 85% 29.80 in 10.0 mi North 4.6 mph - N/A   Overcast
1:54 PM 57.6 °F - 53.2 °F 85% 29.80 in 10.0 mi Calm Calm - N/A   Overcast
2:14 PM 57.2 °F - 53.2 °F 87% 29.81 in 10.0 mi Calm Calm - N/A Rain Light Rain
2:34 PM 56.3 °F - 53.6 °F 91% 29.79 in 10.0 mi North 5.8 mph - 0.02 in   Overcast
2:54 PM 56.3 °F - 54.0 °F 92% 29.78 in 10.0 mi North 3.5 mph - 0.02 in   Overcast
3:14 PM 55.8 °F - 53.8 °F 93% 29.78 in 10.0 mi North 5.8 mph - N/A   Overcast
3:34 PM 55.6 °F - 53.6 °F 93% 29.76 in 10.0 mi North 9.2 mph - N/A   Overcast
4:14 PM 54.9 °F - 52.9 °F 93% 29.77 in 10.0 mi NNW 8.1 mph - N/A   Overcast
4:34 PM 54.5 °F - 52.2 °F 92% 29.76 in 10.0 mi North 9.2 mph - N/A   Overcast
4:54 PM 53.4 °F - 51.4 °F 93% 29.77 in 10.0 mi NNW 8.1 mph - N/A   Overcast
5:14 PM 52.7 °F - 50.9 °F 94% 29.77 in 10.0 mi NNW 9.2 mph - N/A   Overcast
5:54 PM 52.0 °F - 50.4 °F 94% 29.77 in 10.0 mi NNW 11.5 mph - 0.02 in Thunderstorm Overcast
6:14 PM 51.8 °F - 50.0 °F 94% 29.77 in 10.0 mi North 10.4 mph 17.3 mph N/A   Overcast
6:34 PM 51.3 °F - 49.1 °F 92% 29.76 in 10.0 mi NNW 13.8 mph 23.0 mph N/A Thunderstorm Overcast
6:54 PM 50.9 °F - 48.4 °F 91% 29.77 in 10.0 mi North 15.0 mph 24.2 mph N/A Thunderstorm Overcast
7:14 PM 50.2 °F - 47.7 °F 91% 29.77 in 10.0 mi North 11.5 mph 20.7 mph N/A Thunderstorm Overcast
7:34 PM 50.0 °F - 47.3 °F 90% 29.78 in 10.0 mi North 11.5 mph 20.7 mph N/A   Overcast
7:54 PM 50.0 °F - 46.9 °F 89% 29.79 in 10.0 mi North 12.7 mph 19.6 mph N/A   Overcast
8:14 PM 49.6 °F - 46.8 °F 90% 29.80 in 10.0 mi North 10.4 mph 17.3 mph N/A   Overcast
8:34 PM 49.5 °F - 46.6 °F 90% 29.80 in 10.0 mi North 10.4 mph 17.3 mph N/A   Overcast
8:54 PM 49.5 °F - 46.6 °F 90% 29.80 in 10.0 mi North 8.1 mph - N/A   Overcast
9:14 PM 49.3 °F - 46.4 °F 90% 29.80 in 10.0 mi North 9.2 mph - N/A   Overcast
9:34 PM 49.1 °F - 46.0 °F 89% 29.80 in 10.0 mi North 9.2 mph - N/A   Overcast
9:54 PM 48.4 °F - 45.7 °F 90% 29.80 in 10.0 mi North 9.2 mph - N/A   Overcast
10:14 PM 48.2 °F - 45.7 °F 91% 29.79 in 10.0 mi NNW 9.2 mph - N/A   Overcast
10:35 PM 47.5 °F - 45.3 °F 92% 29.80 in 10.0 mi North 10.4 mph 19.6 mph N/A   Overcast
10:54 PM 47.3 °F - 44.6 °F 90% 29.77 in 10.0 mi NNW 15.0 mph 18.4 mph N/A   Overcast
11:14 PM 46.6 °F - 43.2 °F 88% 29.80 in 10.0 mi North 9.2 mph 17.3 mph N/A   Overcast
11:35 PM 46.6 °F - 42.4 °F 85% 29.78 in 10.0 mi North 13.8 mph 20.7 mph N/A   Overcast
11:54 PM 46.4 °F 40.7 °F 41.7 °F 84% 29.78 in 10.0 mi NNW 12.7 mph 17.3 mph N/A   Overcast